| time (UTC) | temp C | wind direction | speed KPH | gust KPH | rain 1hr cm | rain 24hr cm | rain mn cm | humidity % | barometer mb |
| 20260505215104 | 10 | 344 | 0.0 | 4.8 | 0.00 | 0.10 | 0.10 | 82 | 1009.8 |
| 20260505214604 | 10 | 337 | 3.2 | 4.8 | 0.00 | 0.10 | 0.10 | 82 | 1009.8 |
| 20260505214106 | 10 | 358 | 1.6 | 4.8 | 0.00 | 0.10 | 0.10 | 82 | 1009.8 |
| 20260505213604 | 10 | 301 | 1.6 | 4.8 | 0.00 | 0.10 | 0.10 | 82 | 1010.1 |
| 20260505213104 | 10 | 162 | 1.6 | 4.8 | 0.00 | 0.10 | 0.10 | 82 | 1009.8 |
| 20260505212604 | 10 | 281 | 3.2 | 4.8 | 0.00 | 0.10 | 0.10 | 82 | 1010.2 |
| 20260505212104 | 10 | 301 | 0.0 | 9.7 | 0.00 | 0.10 | 0.10 | 82 | 1010.2 |
| 20260505211605 | 10 | 35 | 0.0 | 4.8 | 0.00 | 0.10 | 0.10 | 82 | 1009.9 |
| 20260505211105 | 10 | 278 | 1.6 | 9.7 | 0.00 | 0.10 | 0.10 | 81 | 1010.1 |
| 20260505210604 | 10 | 62 | 1.6 | 4.8 | 0.00 | 0.10 | 0.10 | 81 | 1010.1 |
| 20260505205604 | 10 | 254 | 3.2 | 8.0 | 0.00 | 0.10 | 0.10 | 81 | 1009.8 |
| 20260505205104 | 11 | 265 | 1.6 | 8.0 | 0.00 | 0.10 | 0.10 | 80 | 1009.8 |
| 20260505204604 | 11 | 281 | 1.6 | 11.3 | 0.00 | 0.10 | 0.10 | 81 | 1010.2 |
| 20260505204104 | 11 | 300 | 4.8 | 11.3 | 0.00 | 0.10 | 0.10 | 80 | 1009.8 |
| 20260505203604 | 11 | 300 | 1.6 | 8.0 | 0.00 | 0.10 | 0.10 | 80 | 1009.8 |
| 20260505202604 | 11 | 306 | 1.6 | 9.7 | 0.00 | 0.10 | 0.10 | 80 | 1009.8 |
| 20260505202104 | 11 | 297 | 6.4 | 9.7 | 0.00 | 0.10 | 0.10 | 80 | 1009.8 |
| 20260505201604 | 11 | 212 | 3.2 | 9.7 | 0.00 | 0.10 | 0.10 | 80 | 1009.8 |
| 20260505201104 | 11 | 348 | 3.2 | 9.7 | 0.00 | 0.10 | 0.10 | 80 | 1009.6 |
| 20260505200606 | 11 | 177 | 0.0 | 4.8 | 0.00 | 0.10 | 0.10 | 80 | 1009.7 |
| 20260505200105 | 11 | 310 | 3.2 | 4.8 | 0.00 | 0.10 | 0.10 | 79 | 1009.6 |
| 20260505195104 | 11 | 299 | 1.6 | 4.8 | 0.00 | 0.10 | 0.10 | 79 | 1009.8 |
| 20260505194605 | 11 | 58 | 3.2 | 8.0 | 0.00 | 0.10 | 0.10 | 80 | 1009.5 |
| 20260505194105 | 11 | 303 | 3.2 | 8.0 | 0.00 | 0.10 | 0.10 | 81 | 1009.5 |
| 20260505193604 | 11 | 270 | 1.6 | 4.8 | 0.00 | 0.10 | 0.10 | 81 | 1009.7 |
| 20260505193104 | 12 | 270 | 0.0 | 3.2 | 0.00 | 0.10 | 0.10 | 80 | 1009.5 |
| 20260505192604 | 12 | 270 | 0.0 | 4.8 | 0.00 | 0.10 | 0.10 | 80 | 1009.6 |
| 20260505191604 | 12 | 237 | 0.0 | 3.2 | 0.00 | 0.10 | 0.10 | 80 | 1009.5 |
| 20260505191104 | 12 | 332 | 3.2 | 4.8 | 0.00 | 0.10 | 0.10 | 80 | 1009.4 |
| 20260505190604 | 12 | 278 | 1.6 | 4.8 | 0.00 | 0.10 | 0.10 | 80 | 1009.1 |
| 20260505190105 | 12 | 195 | 1.6 | 4.8 | 0.00 | 0.10 | 0.10 | 80 | 1009.1 |
| 20260505185104 | 12 | 11 | 0.0 | 4.8 | 0.00 | 0.10 | 0.10 | 81 | 1009.1 |
| 20260505184604 | 12 | 305 | 4.8 | 4.8 | 0.00 | 0.10 | 0.10 | 81 | 1009.1 |
| 20260505184104 | 12 | 318 | 3.2 | 4.8 | 0.00 | 0.10 | 0.10 | 83 | 1009.1 |
| 20260505183606 | 12 | 229 | 1.6 | 4.8 | 0.00 | 0.10 | 0.10 | 84 | 1009.1 |
| 20260505183106 | 12 | 305 | 1.6 | 3.2 | 0.00 | 0.10 | 0.10 | 86 | 1009.1 |
| 20260505182604 | 12 | 290 | 0.0 | 1.6 | 0.00 | 0.10 | 0.10 | 85 | 1009.1 |
| 20260505182104 | 12 | 329 | 1.6 | 1.6 | 0.00 | 0.10 | 0.10 | 85 | 1009.5 |
| 20260505181604 | 12 | 231 | 1.6 | 4.8 | 0.00 | 0.10 | 0.10 | 85 | 1009.4 |
| 20260505180604 | 12 | 259 | 0.0 | 3.2 | 0.00 | 0.10 | 0.10 | 84 | 1009.1 |
| 20260505180104 | 13 | 210 | 0.0 | 3.2 | 0.00 | 0.10 | 0.10 | 83 | 1009.1 |
| 20260505175604 | 13 | 108 | 0.0 | 4.8 | 0.00 | 0.10 | 0.10 | 83 | 1009.4 |
| 20260505175104 | 13 | 77 | 0.0 | 4.8 | 0.00 | 0.10 | 0.10 | 83 | 1009.1 |
| 20260505174604 | 13 | 21 | 0.0 | 4.8 | 0.00 | 0.10 | 0.10 | 82 | 1009.1 |
| 20260505174104 | 13 | 98 | 0.0 | 4.8 | 0.00 | 0.10 | 0.10 | 81 | 1009.1 |
| 20260505173605 | 13 | 316 | 1.6 | 3.2 | 0.00 | 0.10 | 0.10 | 81 | 1009.1 |
| 20260505173104 | 13 | 278 | 0.0 | 4.8 | 0.00 | 0.10 | 0.10 | 81 | 1009.1 |
| 20260505172104 | 13 | 274 | 1.6 | 3.2 | 0.00 | 0.10 | 0.10 | 82 | 1009.1 |
| 20260505171604 | 13 | 341 | 1.6 | 3.2 | 0.00 | 0.10 | 0.10 | 82 | 1009.1 |
| 20260505171104 | 13 | 287 | 1.6 | 4.8 | 0.00 | 0.10 | 0.10 | 81 | 1009.1 |
| 20260505170605 | 13 | 289 | 0.0 | 8.0 | 0.00 | 0.10 | 0.10 | 81 | 1009.1 |
| 20260505170105 | 13 | 84 | 4.8 | 8.0 | 0.00 | 0.10 | 0.10 | 81 | 1009.1 |
| 20260505165604 | 13 | 43 | 0.0 | 3.2 | 0.00 | 0.10 | 0.10 | 80 | 1009.1 |
| 20260505165104 | 13 | 37 | 1.6 | 4.8 | 0.00 | 0.10 | 0.10 | 80 | 1009.2 |
| 20260505164104 | 13 | 286 | 0.0 | 1.6 | 0.00 | 0.10 | 0.10 | 80 | 1009.1 |
| 20260505162604 | 13 | 285 | 3.2 | 8.0 | 0.00 | 0.10 | 0.10 | 80 | 1009.1 |
| 20260505162103 | 13 | 269 | 0.0 | 4.8 | 0.00 | 0.10 | 0.10 | 80 | 1009.5 |
| 20260505161604 | 13 | 300 | 3.2 | 4.8 | 0.00 | 0.10 | 0.10 | 80 | 1009.5 |
| 20260505161104 | 13 | 241 | 1.6 | 8.0 | 0.00 | 0.10 | 0.10 | 80 | 1009.6 |
| 20260505160604 | 13 | 286 | 3.2 | 8.0 | 0.00 | 0.10 | 0.10 | 79 | 1009.8 |
| 20260505160104 | 14 | 292 | 1.6 | 3.2 | 0.00 | 0.10 | 0.10 | 79 | 1009.5 |
| 20260505153105 | 13 | 230 | 1.6 | 4.8 | 0.00 | 0.10 | 0.10 | 80 | 1009.7 |
| 20260505152604 | 13 | 279 | 1.6 | 8.0 | 0.00 | 0.10 | 0.10 | 81 | 1009.8 |
| 20260505152106 | 13 | 309 | 3.2 | 4.8 | 0.00 | 0.10 | 0.10 | 81 | 1009.6 |
| 20260505151105 | 13 | 253 | 1.6 | 11.3 | 0.00 | 0.10 | 0.10 | 82 | 1009.8 |
| 20260505150604 | 13 | 232 | 1.6 | 4.8 | 0.00 | 0.10 | 0.10 | 82 | 1009.8 |
| 20260505150104 | 13 | 286 | 3.2 | 8.0 | 0.00 | 0.10 | 0.10 | 82 | 1009.8 |
| 20260505140603 | 12 | 242 | 0.0 | 4.8 | 0.00 | 0.10 | 0.10 | 85 | 1010.2 |
| 20260505130105 | 13 | 252 | 3.2 | 4.8 | 0.00 | 0.10 | 0.10 | 84 | 1010.7 |
| 20260505124104 | 12 | 273 | 1.6 | 8.0 | 0.00 | 0.10 | 0.10 | 85 | 1010.6 |
| 20260505123605 | 12 | 269 | 1.6 | 8.0 | 0.00 | 0.10 | 0.10 | 85 | 1010.6 |
| 20260505122604 | 12 | 276 | 0.0 | 4.8 | 0.00 | 0.10 | 0.10 | 87 | 1010.6 |
| 20260505122104 | 12 | 232 | 1.6 | 4.8 | 0.00 | 0.10 | 0.10 | 87 | 1010.7 |
| 20260505121604 | 12 | 270 | 1.6 | 4.8 | 0.00 | 0.10 | 0.10 | 87 | 1010.8 |
| 20260505121105 | 12 | 251 | 1.6 | 4.8 | 0.00 | 0.10 | 0.10 | 87 | 1010.8 |
| 20260505120604 | 12 | 299 | 0.0 | 4.8 | 0.00 | 0.10 | 0.10 | 87 | 1010.8 |
| 20260505120104 | 12 | 297 | 1.6 | 4.8 | 0.00 | 0.10 | 0.10 | 87 | 1010.8 |
| 20260505115604 | 11 | 343 | 0.0 | 8.0 | 0.00 | 0.10 | 0.10 | 88 | 1010.8 |
| 20260505115104 | 11 | 282 | 1.6 | 3.2 | 0.00 | 0.10 | 0.10 | 89 | 1010.6 |
| 20260505114604 | 11 | 276 | 0.0 | 1.6 | 0.00 | 0.10 | 0.10 | 89 | 1010.9 |
| 20260505114105 | 11 | 53 | 0.0 | 8.0 | 0.00 | 0.10 | 0.10 | 88 | 1011.1 |
| 20260505113606 | 11 | 171 | 3.2 | 4.8 | 0.00 | 0.10 | 0.10 | 88 | 1010.8 |
| 20260505113105 | 11 | 84 | 1.6 | 8.0 | 0.00 | 0.10 | 0.10 | 88 | 1010.9 |
| 20260505112606 | 11 | 221 | 3.2 | 8.0 | 0.00 | 0.10 | 0.10 | 89 | 1011.2 |
| 20260505111604 | 11 | 195 | 1.6 | 8.0 | 0.00 | 0.10 | 0.10 | 89 | 1010.9 |
| 20260505111104 | 11 | 303 | 4.8 | 4.8 | 0.00 | 0.10 | 0.10 | 89 | 1011.1 |
| 20260505110604 | 11 | 298 | 1.6 | 4.8 | 0.00 | 0.10 | 0.10 | 89 | 1011.2 |
| 20260505110104 | 11 | 280 | 0.0 | 3.2 | 0.00 | 0.10 | 0.10 | 89 | 1011.2 |
| 20260505101605 | 11 | 206 | 1.6 | 4.8 | 0.00 | 0.10 | 0.10 | 90 | 1011.2 |
| 20260505101104 | 11 | 268 | 4.8 | 4.8 | 0.00 | 0.10 | 0.10 | 91 | 1011.2 |
| 20260505100604 | 11 | 264 | 1.6 | 4.8 | 0.00 | 0.10 | 0.10 | 91 | 1011.2 |
| 20260505100104 | 11 | 254 | 1.6 | 8.0 | 0.00 | 0.10 | 0.10 | 91 | 1011.2 |
| 20260505095604 | 11 | 273 | 3.2 | 9.7 | 0.00 | 0.10 | 0.10 | 91 | 1011.1 |
| 20260505094604 | 11 | 286 | 3.2 | 8.0 | 0.00 | 0.10 | 0.10 | 92 | 1011.1 |
| 20260505093105 | 10 | 253 | 3.2 | 8.0 | 0.00 | 0.10 | 0.10 | 93 | 1011.2 |
| 20260505092605 | 10 | 308 | 3.2 | 9.7 | 0.00 | 0.10 | 0.10 | 93 | 1011.2 |
| 20260505092105 | 10 | 269 | 1.6 | 4.8 | 0.00 | 0.10 | 0.10 | 93 | 1011.2 |
| 20260505091605 | 10 | 303 | 1.6 | 12.9 | 0.00 | 0.10 | 0.10 | 93 | 1011.2 |
| 20260505091105 | 10 | 96 | 3.2 | 8.0 | 0.00 | 0.10 | 0.10 | 93 | 1011.2 |
| 20260505090105 | 10 | 330 | 1.6 | 9.7 | 0.00 | 0.10 | 0.10 | 93 | 1011.2 |
| 20260505085604 | 10 | 294 | 3.2 | 9.7 | 0.00 | 0.10 | 0.10 | 93 | 1011.2 |
| 20260505085104 | 10 | 49 | 1.6 | 9.7 | 0.00 | 0.10 | 0.10 | 93 | 1011.2 |
| 20260505084104 | 10 | 281 | 3.2 | 4.8 | 0.00 | 0.10 | 0.10 | 93 | 1011.2 |
| 20260505083605 | 10 | 273 | 3.2 | 9.7 | 0.00 | 0.10 | 0.10 | 94 | 1011.2 |
| 20260505083104 | 10 | 222 | 3.2 | 9.7 | 0.00 | 0.10 | 0.10 | 94 | 1011.2 |
| 20260505082104 | 10 | 292 | 4.8 | 8.0 | 0.00 | 0.10 | 0.10 | 95 | 1011.2 |
| 20260505081604 | 10 | 268 | 1.6 | 8.0 | 0.00 | 0.10 | 0.10 | 95 | 1011.2 |
| 20260505081104 | 10 | 310 | 4.8 | 8.0 | 0.00 | 0.10 | 0.10 | 95 | 1011.2 |
| 20260505080105 | 10 | 23 | 3.2 | 4.8 | 0.00 | 0.10 | 0.10 | 95 | 1011.2 |
| 20260505075604 | 10 | 212 | 1.6 | 8.0 | 0.00 | 0.10 | 0.10 | 95 | 1011.2 |
| 20260505075104 | 10 | 280 | 3.2 | 8.0 | 0.00 | 0.10 | 0.10 | 95 | 1011.2 |
| 20260505074604 | 10 | 155 | 3.2 | 8.0 | 0.00 | 0.10 | 0.10 | 95 | 1011.2 |
| 20260505073605 | 10 | 301 | 1.6 | 9.7 | 0.00 | 0.10 | 0.10 | 96 | 1011.2 |
| 20260505072605 | 10 | 290 | 1.6 | 9.7 | 0.00 | 0.10 | 0.10 | 96 | 1011.2 |
| 20260505072104 | 10 | 311 | 3.2 | 14.5 | 0.00 | 0.10 | 0.10 | 96 | 1011.1 |
| 20260505071604 | 10 | 33 | 3.2 | 12.9 | 0.00 | 0.10 | 0.10 | 96 | 1011.2 |
| 20260505070604 | 10 | 328 | 4.8 | 14.5 | 0.00 | 0.10 | 0.10 | 96 | 1011.2 |
| 20260505070106 | 10 | 36 | 4.8 | 12.9 | 0.00 | 0.10 | 0.10 | 96 | 1010.8 |
| 20260505065104 | 10 | 23 | 3.2 | 9.7 | 0.00 | 0.10 | 0.10 | 96 | 1011.1 |
| 20260505064604 | 10 | 328 | 0.0 | 4.8 | 0.00 | 0.10 | 0.10 | 96 | 1011.2 |
| 20260505064105 | 10 | 289 | 1.6 | 9.7 | 0.00 | 0.10 | 0.10 | 96 | 1011.2 |
| 20260505063605 | 10 | 164 | 3.2 | 9.7 | 0.00 | 0.10 | 0.10 | 96 | 1011.2 |
| 20260505063104 | 10 | 321 | 4.8 | 9.7 | 0.00 | 0.10 | 0.10 | 96 | 1011.2 |
| 20260505062604 | 10 | 329 | 3.2 | 9.7 | 0.00 | 0.10 | 0.10 | 96 | 1011.4 |
| 20260505062104 | 10 | 293 | 3.2 | 8.0 | 0.00 | 0.10 | 0.10 | 96 | 1011.3 |
| 20260505061606 | 10 | 317 | 3.2 | 4.8 | 0.00 | 0.10 | 0.10 | 96 | 1011.2 |
| 20260505061104 | 10 | 296 | 3.2 | 8.0 | 0.00 | 0.10 | 0.10 | 96 | 1011.2 |
| 20260505060605 | 10 | 154 | 4.8 | 9.7 | 0.00 | 0.10 | 0.10 | 96 | 1011.2 |
| 20260505060104 | 10 | 31 | 3.2 | 8.0 | 0.00 | 0.10 | 0.10 | 96 | 1011.2 |
| 20260505055604 | 10 | 321 | 3.2 | 8.0 | 0.00 | 0.10 | 0.10 | 96 | 1011.4 |
| 20260505055105 | 10 | 326 | 4.8 | 9.7 | 0.00 | 0.10 | 0.10 | 96 | 1011.2 |
| 20260505054104 | 10 | 230 | 4.8 | 8.0 | 0.00 | 0.10 | 0.10 | 96 | 1011.2 |
| 20260505053604 | 10 | 288 | 3.2 | 8.0 | 0.00 | 0.10 | 0.10 | 96 | 1011.2 |
| 20260505053104 | 10 | 203 | 3.2 | 8.0 | 0.00 | 0.10 | 0.10 | 96 | 1011.2 |
| 20260505052604 | 10 | 230 | 3.2 | 8.0 | 0.00 | 0.10 | 0.10 | 96 | 1011.2 |
| 20260505052104 | 10 | 254 | 3.2 | 8.0 | 0.00 | 0.10 | 0.10 | 96 | 1011.3 |
| 20260505051605 | 10 | 39 | 3.2 | 8.0 | 0.00 | 0.10 | 0.10 | 96 | 1011.2 |
| 20260505051105 | 10 | 60 | 3.2 | 8.0 | 0.00 | 0.10 | 0.10 | 96 | 1011.5 |
| 20260505050603 | 10 | 265 | 3.2 | 11.3 | 0.00 | 0.10 | 0.10 | 96 | 1011.2 |
| 20260505041605 | 10 | 257 | 1.6 | 3.2 | 0.00 | 0.10 | 0.10 | 96 | 1011.2 |
| 20260505041104 | 10 | 251 | 0.0 | 3.2 | 0.00 | 0.10 | 0.10 | 96 | 1011.2 |
| 20260505040604 | 10 | 243 | 0.0 | 9.7 | 0.00 | 0.10 | 0.10 | 96 | 1011.2 |
| 20260505040104 | 10 | 276 | 1.6 | 9.7 | 0.00 | 0.10 | 0.10 | 96 | 1011.3 |
| 20260505035605 | 10 | 238 | 1.6 | 9.7 | 0.00 | 0.10 | 0.10 | 96 | 1011.2 |
| 20260505035104 | 10 | 318 | 4.8 | 4.8 | 0.00 | 0.10 | 0.10 | 96 | 1011.2 |
| 20260505034604 | 10 | 303 | 1.6 | 8.0 | 0.00 | 0.10 | 0.10 | 96 | 1011.2 |
| 20260505034104 | 10 | 274 | 1.6 | 4.8 | 0.00 | 0.10 | 0.10 | 96 | 1011.4 |
| 20260505033604 | 10 | 188 | 1.6 | 4.8 | 0.00 | 0.10 | 0.10 | 96 | 1011.2 |
| 20260505033104 | 10 | 249 | 1.6 | 4.8 | 0.00 | 0.10 | 0.10 | 96 | 1011.5 |
| 20260505032604 | 10 | 291 | 0.0 | 3.2 | 0.00 | 0.10 | 0.10 | 96 | 1011.4 |
| 20260505032104 | 10 | 319 | 3.2 | 8.0 | 0.00 | 0.10 | 0.10 | 96 | 1011.5 |
| 20260505031604 | 10 | 338 | 1.6 | 9.7 | 0.00 | 0.10 | 0.10 | 96 | 1011.2 |
| 20260505031105 | 10 | 313 | 1.6 | 4.8 | 0.00 | 0.10 | 0.10 | 96 | 1011.4 |
| 20260505030604 | 10 | 331 | 1.6 | 11.3 | 0.00 | 0.10 | 0.10 | 96 | 1011.3 |
| 20260505030105 | 11 | 314 | 3.2 | 8.0 | 0.00 | 0.10 | 0.10 | 96 | 1011.5 |
| 20260505025605 | 11 | 298 | 4.8 | 8.0 | 0.00 | 0.10 | 0.10 | 96 | 1011.5 |
| 20260505025104 | 11 | 273 | 3.2 | 8.0 | 0.00 | 0.10 | 0.10 | 96 | 1011.5 |
| 20260505024604 | 11 | 67 | 1.6 | 8.0 | 0.00 | 0.10 | 0.10 | 96 | 1011.5 |
| 20260505024104 | 11 | 170 | 3.2 | 4.8 | 0.00 | 0.10 | 0.10 | 96 | 1011.5 |
| 20260505023604 | 11 | 10 | 1.6 | 4.8 | 0.00 | 0.10 | 0.10 | 96 | 1011.5 |
| 20260505023104 | 11 | 262 | 3.2 | 4.8 | 0.00 | 0.10 | 0.10 | 96 | 1011.8 |
| 20260505022604 | 11 | 324 | 3.2 | 8.0 | 0.00 | 0.10 | 0.10 | 96 | 1011.2 |
| 20260505022106 | 11 | 69 | 1.6 | 3.2 | 0.00 | 0.10 | 0.10 | 96 | 1011.5 |
| 20260505021604 | 11 | 89 | 1.6 | 4.8 | 0.00 | 0.10 | 0.10 | 96 | 1011.5 |
| 20260505021104 | 11 | 49 | 3.2 | 4.8 | 0.00 | 0.10 | 0.10 | 96 | 1011.2 |
| 20260505020105 | 11 | 315 | 3.2 | 8.0 | 0.00 | 0.10 | 0.10 | 96 | 1011.5 |
| 20260505015606 | 11 | 310 | 3.2 | 9.7 | 0.00 | 0.10 | 0.10 | 96 | 1011.5 |
| 20260505015104 | 11 | 333 | 3.2 | 3.2 | 0.00 | 0.10 | 0.10 | 96 | 1011.4 |
| 20260505014606 | 11 | 83 | 0.0 | 3.2 | 0.00 | 0.10 | 0.10 | 96 | 1011.3 |
| 20260505014104 | 11 | 106 | 1.6 | 4.8 | 0.00 | 0.10 | 0.10 | 96 | 1011.5 |
| 20260505013604 | 11 | 305 | 1.6 | 4.8 | 0.00 | 0.10 | 0.10 | 96 | 1011.2 |
| 20260505013105 | 11 | 252 | 1.6 | 4.8 | 0.00 | 0.10 | 0.10 | 96 | 1011.3 |
| 20260505012604 | 11 | 184 | 0.0 | 3.2 | 0.00 | 0.10 | 0.10 | 96 | 1011.5 |
| 20260505012104 | 11 | 106 | 1.6 | 8.0 | 0.00 | 0.10 | 0.10 | 96 | 1011.5 |
| 20260505011604 | 11 | 311 | 1.6 | 4.8 | 0.00 | 0.10 | 0.10 | 96 | 1011.5 |
| 20260505011104 | 11 | 254 | 1.6 | 4.8 | 0.00 | 0.10 | 0.10 | 96 | 1011.8 |
| 20260505010604 | 11 | 227 | 1.6 | 4.8 | 0.00 | 0.10 | 0.10 | 96 | 1011.8 |
| 20260505010104 | 11 | 133 | 1.6 | 4.8 | 0.00 | 0.10 | 0.10 | 96 | 1011.8 |
| 20260505005604 | 11 | 247 | 3.2 | 4.8 | 0.00 | 0.10 | 0.10 | 96 | 1011.9 |
| 20260505004104 | 12 | 294 | 3.2 | 8.0 | 0.00 | 0.10 | 0.10 | 96 | 1011.9 |
| 20260505003604 | 12 | 289 | 1.6 | 8.0 | 0.00 | 0.10 | 0.10 | 95 | 1011.9 |
| 20260505003104 | 12 | 321 | 3.2 | 9.7 | 0.00 | 0.10 | 0.10 | 95 | 1011.9 |
| 20260505002604 | 12 | 2 | 3.2 | 9.7 | 0.00 | 0.10 | 0.10 | 95 | 1011.9 |
| 20260505002104 | 12 | 308 | 4.8 | 9.7 | 0.00 | 0.10 | 0.10 | 95 | 1011.8 |
| 20260505001104 | 12 | 297 | 3.2 | 4.8 | 0.03 | 0.10 | 0.10 | 95 | 1011.9 |
| 20260505000604 | 12 | 11 | 3.2 | 9.7 | 0.03 | 0.13 | 0.10 | 95 | 1011.9 |
| 20260504235604 | 12 | 181 | 4.8 | 9.7 | 0.03 | 0.13 | 0.10 | 95 | 1012.1 |
| 20260504235104 | 12 | 293 | 3.2 | 9.7 | 0.05 | 0.13 | 0.10 | 95 | 1012.2 |
| 20260504234604 | 12 | 247 | 3.2 | 11.3 | 0.10 | 0.13 | 0.10 | 95 | 1012.2 |
| 20260504233604 | 12 | 187 | 1.6 | 4.8 | 0.10 | 0.15 | 0.10 | 95 | 1011.9 |
| 20260504233104 | 12 | 221 | 3.2 | 9.7 | 0.10 | 0.20 | 0.10 | 95 | 1012.5 |
| 20260504232604 | 12 | 303 | 4.8 | 9.7 | 0.10 | 0.38 | 0.10 | 95 | 1012.4 |
| 20260504232104 | 12 | 144 | 1.6 | 4.8 | 0.10 | 0.69 | 0.10 | 95 | 1012.2 |
| 20260504230605 | 12 | 316 | 1.6 | 3.2 | 0.08 | 0.91 | 0.08 | 94 | 1012.2 |
| 20260504230104 | 13 | 260 | 1.6 | 3.2 | 0.08 | 0.91 | 0.08 | 93 | 1012.4 |
| 20260504225105 | 13 | 242 | 1.6 | 4.8 | 0.05 | 0.89 | 0.05 | 92 | 1012.5 |
| 20260504224604 | 13 | 260 | 1.6 | 4.8 | 0.00 | 0.84 | 0.00 | 91 | 1012.2 |
| 20260504224104 | 13 | 339 | 0.0 | 4.8 | 0.00 | 0.84 | 0.00 | 91 | 1012.5 |
| 20260504223604 | 13 | 250 | 0.0 | 3.2 | 0.00 | 0.84 | 0.00 | 91 | 1012.5 |
| 20260504223104 | 13 | 282 | 1.6 | 4.8 | 0.00 | 0.84 | 0.00 | 91 | 1012.5 |
| 20260504222604 | 13 | 228 | 1.6 | 9.7 | 0.00 | 0.84 | 0.00 | 91 | 1012.5 |
| 20260504222104 | 13 | 281 | 1.6 | 9.7 | 0.00 | 0.84 | 0.00 | 91 | 1012.8 |
| 20260504221604 | 13 | 162 | 0.0 | 14.5 | 0.00 | 0.84 | 0.00 | 91 | 1012.6 |
| 20260504221105 | 13 | 309 | 3.2 | 14.5 | 0.00 | 0.84 | 0.00 | 90 | 1012.6 |
| 20260504220604 | 13 | 301 | 1.6 | 4.8 | 0.00 | 0.84 | 0.00 | 90 | 1012.8 |
| 20260504215604 | 14 | 271 | 1.6 | 8.0 | 0.00 | 0.84 | 0.00 | 89 | 1012.8 |